Terug naar catalogus

STARLINK-32718

ActiefCommunicatieVLEO
NORAD 62496·PAYLOAD·🇺🇸 United States

Gelanceerd Jan 6, 2025 vanaf Cape Canaveral Space Force Station

Loading…

Volgende Passages (komende 24 uur)

TLE

VersSource: CelesTrak SupGP

Epoch: Sep 15, 2026, 03:42 UTC

1 62496C 25003K   26258.15465278  .00011332  00000+0  41032-3 0  2588
2 62496  43.0027 298.6519 0001433 269.7496  13.6666 15.27582782    15

Volg STARLINK-32718 in realtime met AllMySat

Download on the App Store